Total_Precipitation_Accumulation
4.61 4.76 4.54 4.32 4.25 4.35 4.64 4.72 4.46 4.48 4.33 4.11 3.86 3.56 3.28 3.03 2.94 3.10 3.27 3.30 3.20 3.29 3.71 4.03 4.05 3.83 3.70 3.43 3.14 2.75 2.57 2.50 2.37 2.09 1.99 2.06 2.10 1.99 1.93 1.99 1.99 1.94 1.94
4.63 4.92 4.83 4.65 4.26 4.21 4.29 4.56 4.62 4.82 4.68 4.38 3.76 3.55 3.37 3.24 3.23 3.15 3.28 3.80 3.87 3.48 3.58 4.04 4.38 4.42 4.27 3.97 3.65 3.28 3.03 2.87 2.56 2.25 2.19 2.21 2.09 2.03 2.11 2.15 2.19 2.04 1.97
4.64 4.76 4.59 4.24 3.96 3.95 4.24 4.42 4.59 4.78 4.47 4.23 4.04 3.92 3.78 3.54 3.38 3.37 3.33 3.90 3.92 3.59 3.51 3.67 4.11 4.45 4.63 4.72 4.50 4.24 3.86 3.41 3.03 2.75 2.49 2.24 2.08 2.02 2.05 2.21 2.35 2.28 2.12
3.89 4.12 3.91 3.64 3.75 3.92 4.05 4.43 4.57 4.67 4.54 4.44 4.43 4.23 4.02 3.79 3.29 3.14 2.98 3.15 3.45 3.12 3.36 3.63 3.81 4.02 4.57 5.09 5.32 5.48 5.06 4.30 3.74 3.24 2.71 2.35 2.12 1.92 1.81 1.96 2.23 2.31 2.17
3.06 3.41 3.50 3.57 3.50 3.76 3.83 3.62 4.16 4.52 4.49 4.40 3.99 3.97 3.56 3.49 3.29 2.90 2.86 2.80 2.95 3.11 3.21 3.33 3.61 3.70 4.23 5.11 5.84 6.44 6.36 5.62 4.71 3.86 3.28 2.80 2.48 2.13 1.90 1.87 2.00 2.11 2.03
2.90 3.31 3.31 3.33 3.29 3.62 3.82 3.88 4.23 4.37 4.02 3.98 3.57 3.50 3.24 2.86 2.91 2.83 2.66 2.78 2.86 2.70 2.94 3.22 3.62 3.43 3.93 4.56 5.34 6.30 7.01 6.68 5.63 4.72 4.23 3.84 3.48 2.95 2.41 2.13 2.05 2.05 2.02
3.09 3.40 3.23 3.38 3.22 3.36 3.39 3.45 3.78 3.98 3.66 3.65 4.14 3.83 3.18 2.68 2.71 2.63 2.68 2.77 2.77 2.80 3.09 3.47 3.69 3.78 3.81 3.70 4.05 4.94 6.15 6.82 6.53 5.65 5.12 4.74 4.36 3.77 3.09 2.70 2.45 2.29 2.14
3.01 3.05 3.24 3.06 3.02 3.24 3.27 3.36 3.67 3.63 3.35 3.58 4.16 4.38 3.85 3.43 3.03 2.51 2.57 2.65 2.72 2.98 3.07 3.16 3.65 4.03 4.02 4.19 3.75 3.75 4.70 5.86 6.56 6.50 6.03 5.27 4.74 4.19 3.69 3.41 3.07 2.75 2.47
2.72 2.78 2.75 2.80 2.96 2.71 3.03 3.38 3.49 3.55 3.54 3.44 3.65 4.22 4.10 3.72 3.33 2.93 2.71 2.78 2.92 3.12 3.23 3.46 3.52 3.76 3.99 4.52 4.40 4.03 3.97 4.41 5.65 6.78 6.95 6.18 5.16 4.46 4.18 3.96 3.85 3.43 3.01
2.42 2.42 2.42 2.63 2.77 2.73 3.12 2.88 3.06 3.40 3.68 3.42 3.37 3.34 3.45 3.73 3.77 3.43 3.02 2.83 2.86 2.99 3.11 3.15 3.31 3.63 3.91 4.32 4.52 4.12 3.71 3.50 4.01 5.28 6.36 6.49 5.80 4.80 4.27 4.27 4.65 4.41 3.76
2.25 2.07 2.24 2.52 2.69 2.74 2.85 2.85 3.03 3.04 3.13 3.12 3.16 3.16 3.36 3.68 3.51 3.42 3.34 3.15 2.94 2.75 2.82 2.98 3.20 3.58 3.67 3.91 4.29 3.89 3.69 3.35 3.24 3.62 4.50 5.19 5.41 5.25 4.80 4.67 5.24 5.56 5.32
2.35 2.15 2.19 2.51 2.62 2.69 2.77 2.87 2.89 2.80 2.88 2.98 3.03 3.05 3.28 3.37 3.40 3.52 3.33 3.06 2.94 2.72 2.65 2.80 2.99 3.10 3.15 3.32 3.17 3.14 3.08 3.12 3.08 3.00 3.20 3.69 4.20 4.68 4.92 5.22 5.68 6.12 6.51
2.27 2.26 2.22 2.65 2.82 2.82 2.75 2.89 2.89 2.80 2.92 3.00 3.01 3.02 3.06 3.03 3.17 3.51 3.51 3.07 2.82 2.60 2.78 2.82 2.80 2.89 2.85 3.11 3.04 2.79 2.62 2.76 2.63 2.45 2.44 2.71 3.12 3.58 4.00 4.43 4.93 5.45 5.96
2.15 2.43 2.58 2.66 2.72 2.76 2.68 3.00 2.79 2.78 2.91 2.92 2.78 3.21 3.15 3.00 3.36 3.64 3.83 3.89 3.38 3.03 3.01 2.81 2.62 2.67 2.75 2.84 2.94 2.86 2.55 2.49 2.26 2.15 2.14 2.27 2.49 2.74 3.06 3.43 3.80 4.15 4.46
2.17 2.46 2.66 2.79 2.74 2.72 2.87 3.12 2.98 2.99 3.12 3.00 2.99 3.30 3.21 3.07 3.26 3.49 3.86 4.17 4.16 3.71 3.42 3.11 2.81 2.67 2.67 2.69 2.87 2.62 2.56 2.62 2.31 2.15 2.14 2.12 2.23 2.38 2.42 2.44 2.56 2.71 2.98
2.43 2.62 2.69 2.68 2.60 2.56 2.75 3.14 3.09 3.10 3.26 3.20 3.20 3.29 3.24 3.08 3.24 3.32 3.55 3.94 4.25 4.20 3.67 2.89 2.84 2.75 2.62 2.38 2.61 2.38 2.46 2.65 2.36 2.16 2.02 1.89 1.88 1.96 2.01 2.10 2.18 2.20 2.30
2.56 2.63 2.65 2.66 2.57 2.44 2.56 2.82 2.89 3.11 3.17 3.21 3.20 3.28 3.26 3.39 3.43 3.35 3.51 3.62 3.86 4.06 3.57 2.86 2.94 3.10 3.05 2.82 2.64 2.43 2.30 2.28 2.24 2.28 1.95 1.81 1.76 1.75 1.87 2.01 2.04 2.01 2.06
2.62 2.69 2.71 2.67 2.44 2.41 2.55 2.66 2.78 3.00 3.09 3.17 3.32 3.44 3.17 3.34 3.48 3.41 3.47 3.43 3.55 3.90 3.68 3.39 3.30 3.35 3.31 3.01 2.78 2.52 2.15 1.92 2.00 2.37 2.07 1.77 1.67 1.70 1.78 1.91 1.88 1.83 1.78
2.62 2.70 2.70 2.59 2.50 2.53 2.63 2.72 2.82 2.96 3.02 3.11 3.30 3.24 3.14 3.34 3.21 3.34 3.43 3.32 3.32 3.37 3.51 3.34 3.09 3.16 3.11 2.94 2.80 2.51 2.23 2.18 1.91 2.03 2.05 1.85 1.73 1.72 1.76 1.77 1.75 1.69 1.71
2.48 2.48 2.45 2.53 2.58 2.60 2.64 2.70 2.73 2.76 2.77 2.82 2.84 2.75 2.66 2.70 2.77 3.02 3.01 3.00 3.10 3.22 3.33 3.17 3.00 3.06 3.06 3.11 3.01 2.67 2.50 2.34 2.13 1.83 1.86 1.86 1.83 1.77 1.74 1.71 1.65 1.60 1.68
2.25 2.42 2.42 2.52 2.57 2.51 2.40 2.56 2.58 2.52 2.70 2.60 2.45 2.39 2.38 2.49 2.58 2.70 2.51 2.61 2.86 2.93 3.01 3.08 3.04 3.18 3.13 3.28 3.13 2.85 2.72 2.63 2.36 2.06 1.98 1.87 1.89 1.83 1.86 1.90 1.84 1.71 1.62
2.37 2.43 2.42 2.53 2.57 2.38 2.54 2.61 2.64 2.62 2.66 2.56 2.48 2.40 2.26 2.27 2.32 2.37 2.35 2.39 2.60 2.71 2.87 3.04 3.03 3.08 3.10 3.12 3.17 3.06 2.93 2.76 2.43 2.23 2.40 2.34 2.15 2.09 2.19 2.06 1.95 1.67 1.51
2.47 2.54 2.64 2.71 2.63 2.76 2.83 2.61 2.62 2.57 2.59 2.59 2.56 2.54 2.21 2.00 2.25 2.19 2.31 2.26 2.18 2.27 2.40 2.55 2.60 2.67 2.91 3.06 3.25 3.17 3.23 3.08 2.70 2.41 2.38 2.18 2.08 2.09 2.21 2.25 1.99 1.57 1.45
2.69 2.76 2.80 2.72 2.70 2.82 2.89 2.50 2.42 2.28 2.32 2.40 2.41 2.46 2.50 2.41 2.41 2.45 2.46 2.36 2.17 2.11 2.25 2.23 2.19 2.41 2.80 3.18 3.31 3.28 3.40 3.29 2.87 2.48 2.41 2.28 2.10 2.06 1.85 1.78 1.81 1.54 1.35
2.86 2.94 3.03 3.04 2.91 2.95 2.86 2.44 2.28 2.09 2.15 2.19 2.24 2.24 2.29 2.20 2.31 2.26 2.19 2.10 2.02 1.93 1.92 1.95 1.92 2.05 2.37 2.83 3.09 3.16 3.32 3.28 2.97 2.60 2.43 2.41 2.17 2.16 1.98 1.72 1.68 1.73 1.52
3.06 3.15 3.04 2.94 2.78 2.74 2.75 2.37 2.16 1.97 2.05 2.11 2.21 2.18 2.18 2.07 2.08 2.00 1.88 1.86 1.75 1.75 1.88 1.91 1.85 1.81 1.92 2.28 2.69 2.71 2.84 3.03 2.77 2.49 2.14 2.19 2.14 2.20 2.14 1.81 1.61 1.59 1.56